Regional Weather Roundup
Issued by NWS

Home | Current Version | Previous Version | Text Only | Print | Product List | Glossary Off
Versions: 1 2 3 4 5 6 7 8 9 10 11 12 13 14 15 16 17 18 19 20 21 22 23 24 25 26 27 28 29 30 31 32 33 34 35 36 37 38 39 40 41 42 43 44 45 46 47 48 49 50

000
ASUS43 KDTX 280810
RWRMI
MICHIGAN HOURLY REGIONAL WEATHER ROUNDUP
NATIONAL WEATHER SERVICE DETROIT/PONTIAC MI
400 AM EDT TUE JUL 28 2015

NOTE: "FAIR" INDICATES FEW OR NO CLOUDS BELOW 12,000 FEET WITH NO
SIGNIFICANT WEATHER AND/OR OBSTRUCTION TO VISIBILITY.

MIZ047>049-052>055-059>063-066>070-074>076-081>083-280900-
SOUTHEAST LOWER MICHIGAN

CITY           SKY/WX    TMP DP  RH WIND       PRES   REMARKS
ADRIAN         CLEAR     62  60  93 N5        30.04S
ALMA           CLEAR     62  62  98 CALM      30.04F FOG
ANN ARBOR      FOG       60  60 100 CALM      30.03F VSB 3/4
BAD AXE        CLEAR     62  61  96 CALM      30.05S
CARO           CLEAR     63  62  99 CALM      30.04S FOG
DETROIT CITY   CLEAR     71  63  75 CALM      30.03F
DETROIT        PTCLDY    71  63  75 CALM      30.04S
FLINT          CLEAR     67  62  84 CALM      30.04S
GROSSE ILE     CLEAR     70  64  83 CALM      30.02S
HILLSDALE      CLEAR     62  62 100 CALM      30.05S
HOWELL         CLEAR     65  63  93 CALM      30.04F

CITY           SKY/WX    TMP DP  RH WIND       PRES   REMARKS
JACKSON        CLEAR     64  63  96 CALM      30.04S FOG
LAMBERTVILLE   CLEAR     65  62  91 CALM      30.03S
LANSING        CLEAR     65  63  93 CALM      30.05R
LAPEER         FAIR      60  60 100 CALM      30.05S FOG
MASON          CLEAR     61  60  97 CALM      30.04F
MONROE         CLEAR     63  62  97 CALM      30.02R
MT. CLEMENS    CLEAR     65  63  91 NW2       30.02S
PONTIAC        CLEAR     66  63  90 CALM      30.04S
PORT HOPE        N/A     66  63  90 SW5       30.02S
PORT HURON     FOG       59  59 100 CALM      30.04S VSB 1/2
TRI CITIES     CLEAR     71  64  78 SW3       30.04S
MIDLAND        FAIR      64  63  95 CALM      30.03S
TROY           CLEAR     72  62  70 CALM      30.05S
SAGINAW HB     CLEAR     66  63  88 CALM      30.02F
$$
MIZ043>046-050>051-056>058-064>065-071>073-077>080-280900-
SOUTHWEST LOWER MICHIGAN

CITY           SKY/WX    TMP DP  RH WIND       PRES   REMARKS
BATTLE CREEK   CLEAR     67  64  90 CALM      30.04F
BENTON HARBOR  PTCLDY    63  62  97 CALM      30.01S
BIG RAPIDS     CLEAR     64  61  90 CALM      30.04F
COLDWATER      CLEAR     62  62  98 CALM      30.04S
FREMONT        FAIR      64  62  95 CALM      30.03F
HOLLAND        CLEAR     66  63  90 CALM      30.03S FOG
GRAND RAPIDS   CLEAR     68  65  90 E3        30.03F
IONIA          FAIR      63  61  95 CALM      30.03F
KALAMAZOO      CLEAR     66  61  84 CALM      30.03F
LUDINGTON      CLEAR     61  58  90 CALM      30.03F
MARSHALL         N/A     62  61  96 CALM      30.04S FOG
MOUNT PLEASANT CLEAR     65  63  94 CALM      30.03F FOG
MUSKEGON       CLEAR     69  61  75 CALM      30.03S
SOUTH HAVEN    PTCLDY    65  64  95 CALM      30.01F
$$
MIZ016>042-280900-
NORTHERN LOWER MICHIGAN

CITY           SKY/WX    TMP DP  RH WIND       PRES   REMARKS
ALPENA         CLEAR     63  61  93 CALM      30.04F
BEAVER ISLAND  CLEAR     64  59  85 CALM      30.03S
BELLAIRE       CLEAR     58  57  96 CALM      30.04S FOG
CADILLAC       CLEAR     59  58  96 CALM      30.06F
CHARLEVOIX     CLEAR     64  60  87 CALM      30.06S
FRANKFORT      CLEAR     60  57  92 CALM      30.03S
GAYLORD        CLEAR     64  60  87 CALM      30.07F
GRAYLING       CLEAR     57  56  94 CALM      30.07F
HARBOR SPRINGS CLEAR     62  60  93 CALM      30.04S
HOUGHTON LAKE  CLEAR     60  59  96 CALM      30.06F
MANISTEE       CLEAR     61  55  82 E5        30.04S
OSCODA         CLEAR     62  61  96 N7        30.03S
PELLSTON       CLEAR     58  57  97 CALM      30.04S
ROGERS CITY    CLEAR     67  61  80 SW5       30.04F
TRAVERSE CITY  CLEAR     64  60  87 CALM      30.02F
$$
MIZ007>008-015-280900-
EASTERN UPPER MICHIGAN

CITY           SKY/WX    TMP DP  RH WIND       PRES   REMARKS
KINROSS        CLEAR     66  63  88 CALM      30.02F
MACKINAC ISLAN CLEAR     68  61  79 SW6       30.03S
MUNISING         N/A     68  62  81 S7        29.99F
$$
MIZ004>006-011>014-085-280900-
CENTRAL UPPER MICHIGAN

CITY           SKY/WX    TMP DP  RH WIND       PRES   REMARKS
MANISTIQUE     PTCLDY    57  55  94 CALM      30.02S
ESCANABA       PTCLDY    59  55  88 CALM      30.00F
MENOMINEE      CLEAR     64  63  94 CALM      30.00F VSB 1
SAWYER-GWINN   CLEAR     64  59  83 CALM      30.02F
$$
MIZ001>003-009>011-084-280900-
WESTERN UPPER MICHIGAN

CITY           SKY/WX    TMP DP  RH WIND       PRES   REMARKS
IRON MOUNTAIN  PTCLDY    62  60  93 CALM      30.01F
HOUGHTON       CLEAR     60  58  92 CALM      29.98F
COPPER HARBOR    N/A     72  62  71 SW9       29.95F
IRONWOOD       CLEAR     72  63  73 S8        29.94F
$$

ABBREVIATIONS USED IN REMARKS
   TC - TEMPERATURE IN CELSIUS
  WCI - WIND CHILL INDEX
   HX - HEAT INDEX
  VSB - VISIBILITY




USA.gov is the U.S. government's official web portal to all federal, state and local government web resources and services.